When you browse on this site, cookies collect data to enhance your experience and personalize the content and advertising you see.
Visit our Privacy Policy to learn more. By continuing to use the site, you agree to this use of cookies and data.
  • In Spain
  • List of Countries
  • For 7 days
  • Water Temperature
  • Satellite Maps
  • Weather Map
  • Weather Widgets
  • user-avatar
    Login

    Hourly Weather Birevo

    Today, 24 June, Monday

    Time Temperature Precipitation Wind Pressure Humidity
    00:00 +17°C° 0.4 mm 3 mps 745 mmHg 85%
    01:00 +16°C° 0 mm 3 mps 745 mmHg 85%
    02:00 +16°C° 0 mm 3 mps 745 mmHg 86%
    03:00 +15°C° 0 mm 2 mps 746 mmHg 88%
    04:00 +14°C° 0.1 mm 3 mps 746 mmHg 88%
    05:00 +14°C° 0.1 mm 3 mps 746 mmHg 87%
    06:00 +14°C° 0.1 mm 3 mps 746 mmHg 87%
    07:00 +16°C° 0.1 mm 3 mps 746 mmHg 84%
    08:00 +17°C° 0.1 mm 3 mps 746 mmHg 81%
    09:00 +19°C° 0 mm 3 mps 747 mmHg 77%
    10:00 +20°C° 0 mm 3 mps 747 mmHg 72%
    11:00 +21°C° 0 mm 3 mps 747 mmHg 66%
    12:00 +23°C° 0 mm 2 mps 746 mmHg 60%
    13:00 +22°C° 0 mm 3 mps 747 mmHg 59%
    14:00 +24°C° 0 mm 3 mps 747 mmHg 57%
    15:00 +24°C° 0 mm 3 mps 747 mmHg 56%
    16:00 +24°C° 0 mm 3 mps 747 mmHg 58%
    17:00 +24°C° 0 mm 2 mps 747 mmHg 60%
    18:00 +24°C° 0 mm 2 mps 747 mmHg 61%
    19:00 +21°C° 0 mm 2 mps 747 mmHg 65%
    20:00 +19°C° 0 mm 2 mps 747 mmHg 69%
    21:00 +18°C° 0 mm 2 mps 748 mmHg 73%
    22:00 +17°C° 0 mm 2 mps 748 mmHg 73%
    23:00 +16°C° 0 mm 2 mps 748 mmHg 73%

    Tomorrow, 25 June, Tuesday

    Time Temperature Precipitation Wind Pressure Humidity
    00:00 +15°C° 0 mm 2 mps 748 mmHg 72%
    01:00 +15°C° 0 mm 2 mps 748 mmHg 74%
    02:00 +14°C° 0 mm 2 mps 749 mmHg 75%
    03:00 +13°C° 0 mm 2 mps 749 mmHg 77%
    04:00 +14°C° 0 mm 2 mps 749 mmHg 77%
    05:00 +14°C° 0 mm 2 mps 749 mmHg 78%
    06:00 +14°C° 0 mm 2 mps 749 mmHg 78%
    07:00 +16°C° 0 mm 2 mps 750 mmHg 75%
    08:00 +17°C° 0 mm 3 mps 750 mmHg 71%
    09:00 +18°C° 0 mm 3 mps 751 mmHg 67%
    10:00 +19°C° 0 mm 3 mps 751 mmHg 62%
    11:00 +20°C° 0 mm 3 mps 751 mmHg 57%
    12:00 +21°C° 0 mm 3 mps 751 mmHg 52%
    13:00 +21°C° 0 mm 3 mps 751 mmHg 51%
    14:00 +22°C° 0 mm 3 mps 751 mmHg 50%
    15:00 +22°C° 0 mm 3 mps 751 mmHg 49%
    16:00 +22°C° 0 mm 3 mps 750 mmHg 54%
    17:00 +21°C° 0 mm 3 mps 750 mmHg 60%
    18:00 +21°C° 0 mm 2 mps 750 mmHg 65%
    19:00 +19°C° 0 mm 2 mps 750 mmHg 67%
    20:00 +17°C° 0 mm 2 mps 750 mmHg 69%
    21:00 +15°C° 0 mm 2 mps 750 mmHg 71%
    22:00 +15°C° 0 mm 1 mps 750 mmHg 72%
    23:00 +14°C° 0 mm 1 mps 750 mmHg 72%

    Day after tomorrow, 26 June, Wednesday

    Time Temperature Precipitation Wind Pressure Humidity
    00:00 +13°C° 0 mm 1 mps 750 mmHg 73%
    01:00 +13°C° 0 mm 1 mps 750 mmHg 74%
    02:00 +12°C° 0 mm 1 mps 750 mmHg 75%
    03:00 +12°C° 0 mm 1 mps 750 mmHg 75%
    04:00 +13°C° 0 mm 1 mps 750 mmHg 76%
    05:00 +13°C° 0 mm 1 mps 750 mmHg 77%
    06:00 +14°C° 0 mm 2 mps 749 mmHg 78%
    07:00 +16°C° 0 mm 2 mps 749 mmHg 75%
    08:00 +17°C° 0 mm 2 mps 749 mmHg 72%
    09:00 +19°C° 0 mm 3 mps 749 mmHg 69%
    10:00 +20°C° 0.1 mm 3 mps 749 mmHg 65%
    11:00 +21°C° 0.1 mm 3 mps 748 mmHg 61%
    12:00 +22°C° 0.1 mm 4 mps 748 mmHg 57%
    13:00 +22°C° 0.2 mm 4 mps 747 mmHg 59%
    14:00 +22°C° 0.2 mm 4 mps 747 mmHg 60%
    15:00 +22°C° 0.2 mm 5 mps 747 mmHg 61%
    16:00 +20°C° 0.6 mm 4 mps 746 mmHg 71%
    17:00 +18°C° 0.6 mm 4 mps 746 mmHg 81%
    18:00 +15°C° 0.6 mm 4 mps 745 mmHg 91%
    19:00 +14°C° 0.4 mm 3 mps 745 mmHg 92%
    20:00 +14°C° 0.4 mm 2 mps 745 mmHg 94%
    21:00 +13°C° 0.4 mm 0 mps 744 mmHg 95%
    22:00 +14°C° 0 mm 1 mps 744 mmHg 95%
    23:00 +13°C° 0 mm 1 mps 743 mmHg 95%

    27 June, Thursday

    Time Temperature Precipitation Wind Pressure Humidity
    00:00 +13°C° 0 mm 1 mps 743 mmHg 95%
    01:00 +13°C° 0 mm 1 mps 743 mmHg 95%
    02:00 +13°C° 0 mm 1 mps 742 mmHg 95%
    03:00 +12°C° 0 mm 1 mps 742 mmHg 95%
    04:00 +13°C° 0 mm 1 mps 741 mmHg 94%
    05:00 +13°C° 0 mm 1 mps 741 mmHg 93%
    06:00 +13°C° 0 mm 1 mps 740 mmHg 93%
    07:00 +14°C° 0.1 mm 2 mps 740 mmHg 93%
    08:00 +14°C° 0.1 mm 2 mps 739 mmHg 93%
    09:00 +13°C° 0.1 mm 3 mps 738 mmHg 93%
    10:00 +13°C° 1.9 mm 4 mps 738 mmHg 94%
    11:00 +13°C° 1.9 mm 5 mps 737 mmHg 95%
    12:00 +13°C° 1.9 mm 6 mps 736 mmHg 96%
    13:00 +13°C° 5.2 mm 6 mps 735 mmHg 96%
    14:00 +14°C° 5.2 mm 6 mps 734 mmHg 96%
    15:00 +14°C° 5.2 mm 6 mps 733 mmHg 97%
    16:00 +15°C° 5.7 mm 5 mps 732 mmHg 97%
    17:00 +17°C° 5.7 mm 4 mps 731 mmHg 97%
    18:00 +18°C° 5.7 mm 3 mps 730 mmHg 97%
    19:00 +18°C° 4.4 mm 3 mps 729 mmHg 96%
    20:00 +18°C° 4.4 mm 3 mps 728 mmHg 96%
    21:00 +18°C° 4.4 mm 3 mps 727 mmHg 96%
    22:00 +17°C° 2.6 mm 3 mps 727 mmHg 96%
    23:00 +17°C° 2.6 mm 4 mps 726 mmHg 96%

    28 June, Friday

    Time Temperature Precipitation Wind Pressure Humidity
    00:00 +17°C° 2.6 mm 4 mps 725 mmHg 96%
    01:00 +17°C° 0.5 mm 4 mps 724 mmHg 96%
    02:00 +15°C° 0.5 mm 5 mps 724 mmHg 96%
    03:00 +15°C° 0.5 mm 5 mps 723 mmHg 95%
    04:00 +14°C° 0.1 mm 5 mps 723 mmHg 95%
    05:00 +14°C° 0.1 mm 6 mps 723 mmHg 95%
    06:00 +13°C° 0.1 mm 6 mps 722 mmHg 94%
    07:00 +13°C° 0 mm 6 mps 722 mmHg 93%
    08:00 +13°C° 0 mm 6 mps 722 mmHg 92%
    09:00 +13°C° 0 mm 6 mps 722 mmHg 91%
    10:00 +13°C° 0 mm 6 mps 721 mmHg 89%
    11:00 +14°C° 0 mm 7 mps 721 mmHg 88%
    12:00 +14°C° 0 mm 7 mps 721 mmHg 86%
    13:00 +14°C° 0.4 mm 6 mps 721 mmHg 88%
    14:00 +13°C° 0.4 mm 6 mps 721 mmHg 90%
    15:00 +13°C° 0.4 mm 6 mps 721 mmHg 93%
    16:00 +12°C° 0.5 mm 5 mps 721 mmHg 94%
    17:00 +12°C° 0.5 mm 4 mps 721 mmHg 94%
    18:00 +11°C° 0.5 mm 3 mps 721 mmHg 95%
    19:00 +11°C° 0.3 mm 3 mps 721 mmHg 96%
    20:00 +11°C° 0.3 mm 3 mps 721 mmHg 96%
    21:00 +11°C° 0.3 mm 3 mps 721 mmHg 97%
    22:00 +11°C° 0.3 mm 4 mps 721 mmHg 97%
    23:00 +11°C° 0.3 mm 4 mps 721 mmHg 97%

    29 June, Saturday

    Time Temperature Precipitation Wind Pressure Humidity
    00:00 +11°C° 0.3 mm 4 mps 721 mmHg 97%
    01:00 +10°C° 0.5 mm 5 mps 720 mmHg 97%
    02:00 +10°C° 0.5 mm 5 mps 720 mmHg 96%
    03:00 +10°C° 0.5 mm 6 mps 720 mmHg 96%
    04:00 +10°C° 0.9 mm 6 mps 720 mmHg 96%
    05:00 +10°C° 0.9 mm 6 mps 720 mmHg 96%
    06:00 +10°C° 0.9 mm 6 mps 720 mmHg 96%
    07:00 +10°C° 0.5 mm 6 mps 720 mmHg 96%
    08:00 +10°C° 0.5 mm 5 mps 720 mmHg 96%
    09:00 +10°C° 0.5 mm 5 mps 720 mmHg 96%
    10:00 +10°C° 0.5 mm 5 mps 720 mmHg 95%
    11:00 +12°C° 0.5 mm 5 mps 721 mmHg 95%
    12:00 +12°C° 0.5 mm 5 mps 721 mmHg 94%
    13:00 +12°C° 0.4 mm 4 mps 721 mmHg 94%
    14:00 +12°C° 0.4 mm 4 mps 722 mmHg 94%
    15:00 +13°C° 0.4 mm 4 mps 722 mmHg 93%
    16:00 +12°C° 0.4 mm 4 mps 722 mmHg 94%
    17:00 +12°C° 0.4 mm 4 mps 722 mmHg 95%
    18:00 +12°C° 0.4 mm 3 mps 723 mmHg 95%
    19:00 +12°C° 0.3 mm 3 mps 723 mmHg 96%
    20:00 +11°C° 0.3 mm 3 mps 723 mmHg 97%
    21:00 +12°C° 0.3 mm 2 mps 723 mmHg 97%
    22:00 +12°C° 0.3 mm 2 mps 723 mmHg 97%
    23:00 +12°C° 0.3 mm 2 mps 723 mmHg 97%
    Show more